Regional Weather Roundup
Issued by NWS

Home | Current Version | Previous Version | Graphics & Text | Print | Product List | Glossary On
Versions: 1 2 3 4 5 6 7 8 9 10 11 12 13 14 15 16 17 18 19 20 21 22 23 24 25 26 27 28 29 30 31 32 33 34 35 36 37 38 39 40 41 42 43 44 45 46 47 48 49 50
000
ASUS45 KSLC 311810
RWRUT

UTAH REGIONAL WEATHER ROUNDUP
NATIONAL WEATHER SERVICE SALT LAKE CITY UT
1100 AM MST SAT JAN 31 2015

UTZ001>011-023>025-311900-

NORTHERN UTAH

CITY           SKY/WX    TMP DP  RH WIND       PRES   REMARKS
BRIGHAM CITY   SUNNY     41  28  60 CALM      30.06R
HILL AFB       SUNNY     39  28  64 W1        30.04R
LOGAN          CLOUDY    33  28  81 SE3       30.08R
OGDEN          SUNNY     41  30  65 CALM      30.04R
PROVO AIRPORT  PTSUNNY   39  34  81 NW9       30.04R WCI  33
SALT LAKE CITY MOSUNNY   40  31  70 NW13      30.05R WCI  32
VERNAL         CLOUDY    36  35  96 CALM      29.97R FOG
WENDOVER       SUNNY     45  25  45 E5        30.09R
HEBER CITY     PTSUNNY   37  30  75 SE6       30.02S WCI  33
WEST JORDAN    SUNNY     43  34  70 NW21G26   30.04R

$$

UTZ012>022-026-027-311900-

SOUTHERN/CENTRAL UTAH

CITY           SKY/WX    TMP DP  RH WIND       PRES   REMARKS
BLANDING       CLOUDY    35  35  99 E3        30.01S
BRYCE CANYON   CLOUDY    36  32  85 NW8       29.98S WCI  30
CEDAR CITY     MIX PCPN  35  34  96 N10       30.00R WCI  27
DELTA          CLOUDY    38  33  84 N6        30.04S WCI  33
HANKSVILLE     CLOUDY    39  36  87 CALM      29.99S
MILFORD        LGT RAIN  37  34  89 N14       30.04R WCI  28
MOAB/CYNLANDS  LGT RAIN  40  37  89 SW5       29.94S
PRICE          PTSUNNY   40  37  89 S3        29.94R
ST GEORGE      MOCLDY    48  41  76 CALM      29.98R
KANAB          SUNNY     46  36  66 E7        29.99R

$$

REGIONAL REPORTS     COLORADO/ARIZONA

CITY           SKY/WX    TMP DP  RH WIND       PRES   REMARKS
CRAIG, CO      LGT SNOW  32  29  88 W10       29.95R FOG     WCI  24
GRAND JUNCTION LGT RAIN  38  36  92 NW6       29.94R WCI  33
RIFLE          LGT RAIN  35  34  96 W5        29.93S WCI  31
MONTROSE       LGT RAIN  36  34  92 CALM      29.95R
CORTEZ         CLOUDY    36  34  92 W6        29.94S WCI  31
PAGE, AZ       NOT AVBL
GRAND CANYON   PTSUNNY   44  36  73 NE6       29.95R
KINGMAN        CLOUDY    48  44  86 N9        29.93R
FLAGSTAFF      CLOUDY    40  34  79 E7        29.94R

$$

REGIONAL REPORTS    NEVADA/IDAHO/WYOMING

CITY           SKY/WX    TMP DP  RH WIND       PRES   REMARKS
LAS VEGAS, NV  PTSUNNY   57  42  57 N6        29.92R
ELY            MOSUNNY   36  29  75 NE8       30.07S WCI  30
ELKO           SUNNY     36  27  69 S13       30.13S WCI  27
POCATELLO, ID  CLOUDY    32  29  88 W9        30.14R WCI  24
BURLEY         PTSUNNY   38  28  67 SW9       30.13R WCI  31
EVANSTON, WY   PTSUNNY   33  28  81 W9        30.01R WCI  25
ROCK SPRINGS   PTSUNNY   30  26  85 W16       29.95F WCI  19
KEMMERER       MOSUNNY   32  28  86 W17       29.98S WCI  21

$$



USA.gov is the U.S. government's official web portal to all federal, state and local government web resources and services.